Location: Eppenbrunn
(49.1158°N, 7.5601°E)
Time: 23:02:50
(UTC+00:00)

STARLINK-29 - Pass Details

Date: 09 April 2020
Orbit: 387 x 401 km, 53.0° (Epoch: 29 May)

Event Time Altitude Azimuth Distance (km) Brightness Sun altitude
Rises 20:14:18 0° 254° (WSW) 2,285 7.3 -18.6°
Reaches altitude 10° 20:16:22 10° 257° (WSW) 1,433 6.3 -18.8°
Maximum altitude 20:19:34 66° 340° (NNW) 437 3.2 -19.2°
Enters shadow 20:20:16 47° 41° (NE) 533 3.5 -19.3°
